Location: Gleizolles
(44.4833°N, 6.7667°E)
Time: 13:38:50
(UTC+00:00)

A-11 Canister half - Pass Details

Date: 13 June 2024
Orbit: 1515 x 1684 km, 47.2° (Epoch: 24 July)

Event Time Altitude Azimuth Distance (km) Brightness Sun altitude
Rises 03:02:53 0° 293° (WNW) 4,771 11.3 -7.1°
Reaches altitude 10° 03:06:27 10° 284° (WNW) 3,759 10.7 -6.6°
Maximum altitude 03:14:18 31° 227° (SW) 2,451 9.6 -5.6°
Drops below altitude 10° 03:22:00 10° 170° (S) 3,671 10.7 -4.5°
Sets 03:25:27 0° 160° (SSE) 4,643 11.3 -4.0°
